Theta_e
286 286 286 286 285 285 286 285 286 287 287 286 286 285 285 285 285 285 285 285 286 286 287 287 288 288 289 290 291 291 291 291 291 291 291 292 294 296
286 286 286 286 285 285 285 285 285 285 287 285 285 285 285 285 285 285 285 285 285 286 286 286 287 287 288 288 288 289 289 289 290 290 291 292 293 294
286 286 285 285 285 285 285 285 285 285 286 285 285 285 284 285 285 285 285 285 285 285 285 285 285 286 286 287 287 288 289 289 289 290 291 291 293 293
286 285 285 285 284 284 284 284 284 284 285 285 285 285 285 285 285 285 285 284 283 283 283 284 285 285 286 286 286 287 287 288 288 289 289 289 290 291
286 285 284 284 283 283 284 284 284 284 284 285 285 285 285 285 285 283 283 282 282 282 282 283 284 284 285 286 286 286 286 286 287 287 287 288 289 290
286 285 284 284 284 284 285 285 285 285 285 285 285 286 285 284 283 283 283 282 283 283 283 283 283 283 284 284 284 284 285 285 285 286 286 287 288 289
285 284 284 284 284 285 285 285 284 285 285 286 285 284 284 283 283 282 283 283 283 283 283 283 283 282 283 283 283 283 283 284 285 285 286 287 287 288
284 284 284 284 284 284 284 284 285 285 287 285 284 284 283 282 282 283 283 283 284 283 283 283 283 283 283 282 282 283 283 284 285 286 286 287 287 288
284 284 284 283 284 283 283 284 285 286 284 284 283 282 282 282 283 283 283 283 283 283 282 282 282 282 282 282 282 282 283 284 285 286 286 287 287 288
284 284 283 283 283 284 284 285 285 283 282 282 282 282 283 283 282 282 282 282 282 281 281 283 281 282 281 281 282 283 283 284 285 286 287 287 288 288
284 284 283 283 283 284 285 284 283 282 281 282 283 283 281 281 281 282 282 281 282 281 280 281 282 282 281 282 282 283 284 284 285 286 287 287 288 289
284 283 283 283 283 285 284 283 282 281 281 283 281 279 279 280 280 280 280 280 280 281 281 281 281 282 283 282 283 283 283 284 285 286 287 287 288 288
283 283 283 283 284 283 282 281 281 282 282 280 279 279 279 280 280 279 279 279 279 279 279 280 281 281 281 283 283 283 283 284 285 285 286 287 288 288
283 283 282 283 282 281 280 280 282 281 279 279 279 279 279 279 278 278 278 278 278 278 279 279 280 281 282 283 284 284 285 286 286 286 286 287 288 289
283 283 282 281 280 279 279 280 279 278 278 278 279 279 278 278 277 277 278 278 278 279 280 280 280 281 282 284 285 285 286 287 287 288 289 289 289 289
282 282 280 278 278 278 277 277 278 278 278 278 278 277 277 277 278 278 277 278 279 280 280 281 282 283 284 284 285 286 286 288 288 289 289 290 290 290
282 279 278 277 277 277 277 277 277 277 278 277 277 277 277 277 277 277 278 278 278 280 281 282 283 284 284 284 286 287 287 288 289 289 290 290 291 291
279 277 277 277 277 276 276 277 277 277 277 276 276 276 277 276 277 278 278 278 279 280 281 283 284 284 285 287 287 287 287 288 289 289 290 290 291 290
277 276 276 276 276 276 276 276 276 276 276 276 276 276 276 277 277 277 277 278 279 280 282 284 284 285 286 288 287 287 287 288 288 289 290 290 290 292
276 276 275 275 275 275 275 276 276 276 276 276 276 277 276 276 277 277 278 278 280 282 283 284 284 284 286 287 286 286 288 287 288 289 290 290 290 291
275 275 275 275 275 275 275 275 275 275 276 276 275 276 276 276 277 277 278 280 282 282 284 284 284 284 284 284 287 288 287 288 288 288 289 290 290 290
274 274 274 274 274 274 274 274 275 275 275 275 276 276 276 277 277 278 279 280 281 282 284 284 284 284 284 286 287 287 287 288 288 288 289 289 289 289
274 273 273 273 274 274 274 274 274 275 275 275 276 276 277 277 278 279 280 281 282 284 284 284 283 284 284 285 285 286 287 288 288 288 289 289 290 290
Wind_Speed
7 9 10 11 13 13 14 14 15 12 15 20 7 24 26 27 28 30 30 30 32 35 37 39 39 39 41 40 39 39 41 44 47 49 49 49 48 46
9 11 12 13 14 15 15 16 17 21 13 27 29 30 29 30 30 30 31 32 34 34 37 39 41 45 45 44 47 48 48 46 44 45 45 45 45 46
11 11 13 14 14 15 16 17 19 21 17 36 31 32 33 32 32 30 29 30 33 38 38 39 41 40 41 42 43 44 45 45 45 44 43 43 43 42
12 13 14 14 16 17 18 19 20 22 25 27 36 33 33 33 32 30 30 34 33 33 37 38 39 40 41 41 41 42 43 43 43 43 44 45 44 43
13 14 15 16 17 17 18 20 22 24 24 26 33 35 33 28 30 33 31 34 31 33 38 36 36 38 39 41 42 42 42 42 42 43 43 43 43 43
15 17 17 16 18 19 20 21 21 25 28 28 29 25 29 33 30 30 29 30 31 33 37 35 37 38 38 40 41 41 41 40 40 40 41 41 41 41
17 19 16 18 20 21 23 24 26 26 26 27 21 25 28 28 27 30 30 33 32 31 35 33 31 36 37 38 38 38 37 37 38 39 39 40 40 40
17 18 19 22 21 21 24 25 26 29 29 24 24 24 29 28 31 30 28 28 15 27 25 39 32 36 34 35 36 37 39 40 41 41 41 41 42 43
18 20 21 19 22 22 25 27 29 22 29 29 29 29 29 32 31 29 32 29 29 34 31 34 33 35 35 36 38 39 39 39 39 40 40 41 42 43
20 22 20 21 21 25 30 25 24 27 25 27 29 31 30 30 34 31 32 33 33 33 27 15 33 33 35 36 40 38 35 34 34 35 37 38 39 41
21 20 19 21 25 29 27 27 29 28 28 27 27 27 34 30 26 27 26 22 16 27 33 24 24 31 35 38 31 24 29 36 38 38 38 39 40 41
20 18 19 23 28 27 29 27 24 29 28 24 28 27 23 25 24 21 24 21 20 12 17 17 27 22 8 18 22 37 31 31 32 35 37 37 38 39
21 23 22 26 28 30 29 25 24 29 26 25 25 25 25 23 24 23 24 24 24 23 36 28 22 26 16 19 29 30 32 33 33 35 33 33 34 36
22 23 25 28 30 29 25 23 25 25 21 21 23 24 25 25 27 29 31 30 28 32 40 36 25 26 23 16 14 28 36 36 30 31 33 35 35 36
21 25 27 27 27 22 20 23 21 19 20 21 22 24 25 29 31 28 29 29 29 30 30 29 29 31 27 22 15 30 28 29 35 29 34 32 32 32
22 19 23 24 20 20 20 18 19 19 21 22 23 26 27 26 27 25 26 28 27 29 24 23 26 27 26 27 23 25 27 12 36 33 34 32 29 27
26 21 20 19 20 20 20 21 21 21 22 23 24 25 26 25 28 26 24 25 20 22 27 30 26 24 24 26 21 22 24 27 32 35 32 28 23 17
22 17 18 18 19 21 22 24 24 23 23 24 25 23 24 24 25 27 23 20 20 22 24 27 28 27 24 15 12 16 21 26 33 32 30 18 15 15
15 17 18 19 20 21 22 22 25 25 26 23 24 25 24 24 24 23 22 21 21 21 23 23 21 15 11 11 16 19 19 27 30 29 30 23 10 12
15 18 20 21 22 22 23 24 26 26 24 24 24 24 24 21 23 21 21 19 19 21 21 20 18 16 10 8 7 22 25 25 26 23 26 20 18 19
19 20 21 22 23 23 24 25 26 26 26 26 26 24 24 21 22 22 21 24 23 18 12 16 22 22 20 15 8 11 24 26 27 26 28 16 9 12
20 21 23 23 24 25 26 26 27 27 26 25 25 25 24 22 21 21 21 19 19 18 18 21 23 19 9 7 9 11 16 24 26 25 30 30 13 6
22 23 25 26 26 26 26 26 26 28 26 26 26 26 25 23 22 21 20 18 18 16 16 17 16 13 11 8 12 11 16 19 20 21 24 30 29 29
Wind_Direction
323 316 307 296 293 289 280 288 297 306 305 311 307 306 307 306 302 301 300 296 296 295 294 293 293 293 295 290 288 284 283 285 284 281 277 274 269 268
321 316 312 307 301 297 286 283 281 285 292 303 304 306 306 303 299 299 299 298 294 295 296 294 292 292 291 288 287 283 283 283 280 277 273 270 266 264
321 316 311 312 303 301 296 289 284 283 284 296 300 304 305 303 304 303 299 297 293 296 298 294 293 293 290 288 288 287 285 283 280 278 275 273 270 267
321 319 316 316 308 304 298 293 290 289 284 290 299 302 303 307 305 305 303 297 296 294 294 293 295 293 290 288 287 284 282 280 278 277 276 274 273 271
321 319 316 314 308 305 302 298 292 288 284 283 294 298 303 311 307 306 305 300 299 298 295 296 293 291 291 290 288 287 285 282 280 276 274 273 270 268
318 319 315 310 308 307 302 296 296 296 294 290 287 298 307 310 305 305 304 303 303 302 295 293 292 291 290 289 287 285 282 281 279 276 273 270 269 266
315 316 312 313 308 304 302 304 303 299 295 291 311 308 304 309 307 306 301 303 303 302 296 295 296 292 289 289 286 285 283 280 277 274 271 268 265 262
312 312 312 313 308 304 305 304 302 300 302 315 304 302 304 304 303 302 300 308 303 309 300 296 298 292 291 288 287 287 286 284 281 277 274 270 266 263
313 312 311 305 304 306 303 303 300 299 302 302 302 298 297 297 297 303 303 301 298 299 301 293 298 292 293 291 291 290 288 284 281 278 274 271 266 263
314 312 304 301 305 310 310 311 312 309 305 302 296 293 294 301 304 301 300 298 295 297 301 289 297 292 297 294 293 289 287 287 284 279 275 272 267 263
311 310 308 309 313 315 318 316 312 308 305 302 299 298 301 301 302 304 300 305 299 304 306 292 300 304 302 294 291 291 293 291 286 282 278 274 269 266
314 311 308 316 318 318 319 317 313 308 306 309 309 308 307 308 308 304 300 297 298 307 307 310 307 318 312 299 299 302 300 297 294 289 284 278 273 268
317 318 318 318 318 320 317 314 306 308 316 312 311 311 311 311 310 310 303 292 291 284 290 305 300 300 289 296 302 302 300 299 297 296 292 283 276 268
318 318 314 318 320 317 314 312 313 315 311 311 311 308 310 309 309 308 306 300 292 282 293 294 282 288 288 291 293 299 305 303 299 292 289 288 285 278
317 314 317 318 317 316 316 315 316 316 315 311 308 307 307 305 305 306 308 308 304 298 301 298 284 285 283 283 286 295 302 310 306 303 301 294 288 279
320 320 318 317 314 314 319 320 319 317 313 309 306 304 306 308 308 311 310 312 311 309 311 305 300 293 293 291 290 290 299 308 312 314 315 308 303 289
324 319 320 323 322 324 322 321 321 321 316 313 310 309 308 311 309 314 310 310 307 307 313 319 319 313 297 287 291 290 303 313 322 323 324 324 332 346
322 318 319 320 320 320 318 316 317 317 315 311 307 304 304 306 307 310 310 307 306 308 310 316 325 331 335 327 295 290 313 325 330 334 339 336 344 10
323 319 316 317 316 312 309 307 308 310 308 304 302 302 302 303 308 306 308 307 308 308 309 315 320 324 327 323 306 327 323 329 334 341 348 343 337 3
322 317 315 315 310 307 307 307 307 308 309 306 305 304 303 301 305 305 305 304 305 310 314 319 322 323 315 311 310 304 339 335 339 342 349 345 350 12
320 317 313 307 304 304 305 306 307 307 308 307 305 304 303 303 300 300 301 307 313 312 309 321 319 322 318 317 315 318 331 351 355 347 351 351 348 344
316 311 307 304 304 305 307 308 308 308 308 307 305 304 304 302 296 297 300 304 307 306 306 314 326 334 329 333 326 323 328 340 355 2 10 15 6 342
311 307 305 305 307 307 307 307 305 304 304 303 302 303 304 300 301 299 300 304 304 311 322 325 330 336 328 318 327 323 333 346 351 352 357 8 16 23